Home > Weather > Cayenne > Past weeks

Flag for French Guiana Weather for the Past 2 Weeks in Cayenne, French Guiana

Now
81 °F

Mostly cloudy.


Feels Like: 86 °F
Forecast: N/A
Wind: 8 mph from Northeast

Location: Cayenne / Rochambeau

Current Time: Feb 11, 2016 at 7:18:39 PM

Latest Report: Feb 11, 2016 at 7:00 PM


Visibility: N/A

Pressure: 29.89 "Hg

Humidity: 84%

Dew point: 75 °F

Location of CayenneLocation

Historic Weather in Cayenne — Graph

°F

Cayenne Temperature Yesterday

Maximum temperature yesterday: 82 °F (at 10:30 AM)
Minimum temperature yesterday: 77 °F (at 5:30 AM)
Average temperature yesterday: 81 °F

High & Low Weather Summary for the Past Weeks

 TemperatureHumidityPressure
High86 °F (Jan 30, 2:30 PM)100% (Jan 29, 11:30 PM)30.01 "Hg (Jan 29, 11:30 PM)
Low70 °F (Jan 30, 6:00 AM)62% (Jan 30, 2:30 PM)29.80 "Hg (Feb 3, 3:30 PM)
Average80 °F85%29.91 "Hg
* Reported Jan 27 6:00 PM — Feb 11 6:00 PM, Cayenne, Weather by CustomWeather, © 2016

Note: Actual official high and low records may vary slightly from our data, if they occured in-between our weather recording intervals... More about our weather records

Advertising

Cayenne Weather History for the Previous 24 Hours

 ConditionsComfort  
Time TempWeatherWind HumidityBarometerVisibility
6:00 PM
Thu, Feb 11
82 °FMostly cloudy.10 mph79%29.89 "HgN/A
5:30 PM82 °FPartly sunny.13 mph79%29.89 "HgN/A
5:00 PM82 °FBroken clouds.12 mph79%29.89 "HgN/A
4:30 PM84 °FPartly sunny.14 mph74%29.89 "HgN/A
4:00 PM82 °FMostly cloudy.12 mph79%29.89 "HgN/A
3:30 PM84 °FPartly sunny.14 mph74%29.89 "HgN/A
3:00 PM82 °FPartly sunny.14 mph79%29.89 "HgN/A
2:30 PM84 °FPartly sunny.13 mph74%29.92 "HgN/A
2:00 PM84 °FBroken clouds.13 mph74%29.92 "HgN/A
1:30 PM82 °FPartly sunny.13 mph79%29.92 "HgN/A
1:00 PM84 °FPartly sunny.14 mph74%29.95 "HgN/A
12:30 PM82 °FPartly sunny.12 mph84%29.95 "HgN/A
12:00 PM82 °FRain. Mostly cloudy.13 mph84%29.95 "HgN/A
11:30 AM82 °FPartly sunny.12 mph79%29.98 "HgN/A
11:00 AM84 °FBroken clouds.14 mph74%29.98 "HgN/A
10:30 AM82 °FBroken clouds.15 mph79%29.98 "HgN/A
10:00 AM82 °FPartly sunny.10 mph79%29.98 "HgN/A
9:30 AM82 °FPartly sunny.9 mph84%29.98 "HgN/A
9:00 AM81 °FBroken clouds.8 mph84%29.98 "HgN/A
8:30 AM81 °FPartly sunny.8 mph84%29.98 "HgN/A
8:00 AM79 °FBroken clouds.7 mph89%29.95 "HgN/A
7:30 AM79 °FBroken clouds.5 mph89%29.95 "HgN/A
7:00 AM79 °FPartly sunny.6 mph89%29.92 "HgN/A
6:30 AM79 °FMostly cloudy.5 mph89%29.92 "Hg6 mi
6:00 AM79 °FPassing clouds.7 mph89%29.92 "Hg4 mi
5:30 AM79 °FPartly cloudy.6 mph89%29.92 "HgN/A
5:00 AM79 °FPassing clouds.8 mph89%29.92 "HgN/A
4:30 AM79 °FMostly cloudy.7 mph89%29.89 "HgN/A
4:00 AM79 °FMostly cloudy.6 mph89%29.89 "Hg6 mi
3:30 AM79 °FMostly cloudy.3 mph89%29.89 "Hg6 mi
3:00 AM79 °FLight rain. Partly cloudy.5 mph89%29.89 "HgN/A
2:30 AM79 °FPartly cloudy.7 mph89%29.92 "HgN/A
2:00 AM79 °FPartly cloudy.6 mph89%29.92 "HgN/A
1:30 AM79 °FPassing clouds.7 mph89%29.92 "HgN/A
1:00 AM79 °FPassing clouds.9 mph89%29.92 "Hg5 mi
12:30 AM81 °FPartly cloudy.10 mph79%29.92 "HgN/A
12:00 AM81 °FPassing clouds.8 mph84%29.95 "HgN/A
11:00 PM
Wed, Feb 10
81 °FPassing clouds.6 mph84%29.95 "HgN/A
10:30 PM81 °FMostly cloudy.8 mph84%29.95 "HgN/A
10:00 PM81 °FMostly cloudy.6 mph84%29.95 "HgN/A
9:00 PM81 °FPassing clouds.8 mph84%29.95 "HgN/A
8:30 PM81 °FPassing clouds.8 mph84%29.92 "HgN/A
8:00 PM81 °FMostly cloudy.9 mph84%29.92 "HgN/A
7:00 PM81 °FPartly cloudy.10 mph84%29.92 "HgN/A
Weather by CustomWeather, © 2016

See weather overviewHow to use our weather pages